Location: Sagn�
(15.2046°N, 12.7898°W)
Time: 13:33:15
(UTC+00:00)

CZ-4 R/B - Pass Details

Date: 08 May 2021
Orbit: 530 x 597 km, 97.7° (Epoch: 14 June)

Event Time Altitude Azimuth Distance (km) Brightness Sun altitude
Rises 19:41:38 0° 164° (SSE) 2,823 4.6 -7.9°
Reaches altitude 10° 19:43:49 10° 162° (SSE) 1,918 3.7 -8.4°
Maximum altitude 19:47:58 71° 78° (ENE) 621 1.4 -9.3°
Drops below altitude 10° 19:52:03 10° 354° (N) 1,891 4.4 -10.2°
Sets 19:54:11 0° 352° (N) 2,780 5.3 -10.7°
